Regional Weather Roundup
Issued by NWS

Home | Current Version | Previous Version | Graphics & Text | Print | Product List | Glossary On
Versions: 1 2 3 4 5 6 7 8 9 10 11 12 13 14 15 16 17 18 19 20 21 22 23 24 25 26 27 28 29 30 31 32 33 34 35 36 37 38 39 40 41 42 43 44 45 46 47 48 49 50
000
ASUS43 KBIS 281810
RWRND

NORTH DAKOTA REGIONAL WEATHER ROUNDUP
NATIONAL WEATHER SERVICE BISMARCK ND
100 PM CDT TUE JUL 28 2015

NOTE: "FAIR" INDICATES FEW OR NO CLOUDS BELOW 12,000 FEET WITH NO
SIGNIFICANT WEATHER AND/OR OBSTRUCTIONS TO VISIBILITY.


NDZ001>003-009>011-017-281900-
NORTHWEST NORTH DAKOTA

CITY           SKY/WX    TMP DP  RH WIND       PRES   REMARKS
WILLISTON      LGT RAIN  59  55  87 W31G46    29.54R FOG
6HR MIN TEMP:  57; 6HR MAX TEMP:  60; 6HR PCP:  0.03;

MINOT          CLOUDY    66  53  63 SW24G36   29.52F
MINOT AFB      CLOUDY    67  58  71 SW16G36   29.48F
$$

NDZ018>021-031>035-040>046-281900-
SOUTHWEST NORTH DAKOTA

CITY           SKY/WX    TMP DP  RH WIND       PRES   REMARKS
BISMARCK       CLOUDY    71  49  45 W32G44    29.73S
6HR MIN TEMP:  62; 6HR MAX TEMP:  72;

DICKINSON      PTSUNNY   64  50  60 W41G55    29.74R
GARRISON         N/A     67  55  65 W31G46    29.60S
6HR MIN TEMP:  61; 6HR MAX TEMP:  67;

HETTINGER ARPT CLOUDY    64  45  49 W37G47    29.87R
$$

NDZ004>008-012>016-024-026-027-054-281900-
NORTHEAST NORTH DAKOTA

CITY           SKY/WX    TMP DP  RH WIND       PRES   REMARKS
GRAND FORKS    MOSUNNY   76  59  55 SW21G28   29.61F
GRND FRKS AFB  MOSUNNY   76  59  54 SW22G28   29.62S
DEVILS LAKE    PTSUNNY   72  52  49 SW22G31   29.60F
$$

NDZ022-023-025-028>030-036>039-047>053-281900-
SOUTHEAST NORTH DAKOTA

CITY           SKY/WX    TMP DP  RH WIND       PRES   REMARKS
FARGO          MOSUNNY   77  60  55 SW21G29   29.70R
6HR MIN TEMP:  71; 6HR MAX TEMP:  77;

JAMESTOWN      PTSUNNY   73  52  47 SW26G35   29.71S
$$



USA.gov is the U.S. government's official web portal to all federal, state and local government web resources and services.